FDX632 KMCI-KMEM

Flight info

Callsign FDX632
Flight time 0h 57m
Altitude 37000
Route RACER8 SGF WHOLL BRBBQ3
Aircraft MD11/H-SDE1E2E3FGHIJ2J3J4J5M1RWXY/LB1D1

Departure

Time 2026-05-07 14:45
Airport Kansas City International Airport (KMCI)

Arrival

Time 2026-05-07 15:42
Airport Memphis International Airport (KMEM)
Time Latitude Longitude Altitude Speed Heading
2026-05-07 14:14 39.32244 -94.71557 1022 ft 0 kts 104°
2026-05-07 14:37 39.32247 -94.71577 1022 ft 4 kts 94°
2026-05-07 14:37 39.32256 -94.71611 1022 ft 4 kts 185°
2026-05-07 14:37 39.32281 -94.71605 1022 ft 4 kts 193°
2026-05-07 14:38 39.32295 -94.71600 1022 ft 0 kts 193°
2026-05-07 14:41 39.32282 -94.71605 1022 ft 5 kts 193°
2026-05-07 14:41 39.32249 -94.71615 1022 ft 6 kts 193°
2026-05-07 14:42 39.32197 -94.71631 1022 ft 8 kts 193°
2026-05-07 14:42 39.32155 -94.71658 1022 ft 4 kts 236°
2026-05-07 14:42 39.32149 -94.71714 1022 ft 9 kts 273°
2026-05-07 14:42 39.32164 -94.71804 1022 ft 10 kts 282°
2026-05-07 14:43 39.32178 -94.71883 1022 ft 8 kts 284°
2026-05-07 14:43 39.32188 -94.71938 1023 ft 0 kts 283°
2026-05-07 14:43 39.32191 -94.71953 1023 ft 4 kts 283°
2026-05-07 14:44 39.32201 -94.72014 1023 ft 8 kts 283°
2026-05-07 14:44 39.32200 -94.72065 1023 ft 5 kts 244°
2026-05-07 14:44 39.32161 -94.72095 1023 ft 7 kts 200°
2026-05-07 14:44 39.32103 -94.72114 1021 ft 23 kts 193°
2026-05-07 14:45 39.31611 -94.72263 1022 ft 121 kts 193°
2026-05-07 14:45 39.30526 -94.72559 1202 ft 179 kts 195°
2026-05-07 14:45 39.29344 -94.72846 2548 ft 166 kts 198°
2026-05-07 14:45 39.28183 -94.73045 3598 ft 172 kts 194°
2026-05-07 14:46 39.26972 -94.73206 4424 ft 181 kts 194°
2026-05-07 14:46 39.25640 -94.73398 4904 ft 206 kts 194°
2026-05-07 14:46 39.24143 -94.73642 5185 ft 231 kts 194°
2026-05-07 14:46 39.22450 -94.73704 5407 ft 260 kts 176°
2026-05-07 14:47 39.20663 -94.73158 6376 ft 267 kts 170°
2026-05-07 14:47 39.18856 -94.72524 7341 ft 272 kts 170°
2026-05-07 14:47 39.17001 -94.71906 8238 ft 278 kts 171°
2026-05-07 14:47 39.15099 -94.71312 9136 ft 285 kts 172°
2026-05-07 14:48 39.13151 -94.70734 10006 ft 291 kts 172°
2026-05-07 14:48 39.11113 -94.70157 10306 ft 319 kts 172°
2026-05-07 14:48 39.08835 -94.69534 10438 ft 351 kts 172°
2026-05-07 14:48 39.06372 -94.68869 10942 ft 367 kts 172°
2026-05-07 14:49 39.03845 -94.68184 11717 ft 376 kts 172°
2026-05-07 14:49 39.01259 -94.67488 12492 ft 383 kts 172°
2026-05-07 14:49 38.98620 -94.66782 13253 ft 391 kts 173°
2026-05-07 14:49 38.95936 -94.66069 13939 ft 398 kts 173°
2026-05-07 14:50 38.93205 -94.65345 14622 ft 403 kts 173°
2026-05-07 14:50 38.90436 -94.64613 15307 ft 408 kts 173°
2026-05-07 14:50 38.87663 -94.63881 15985 ft 412 kts 173°
2026-05-07 14:50 38.84838 -94.63136 16665 ft 417 kts 173°
2026-05-07 14:51 38.81980 -94.62384 17322 ft 422 kts 174°
2026-05-07 14:51 38.79093 -94.61625 17959 ft 426 kts 174°
2026-05-07 14:51 38.76178 -94.60858 18585 ft 429 kts 174°
2026-05-07 14:51 38.73243 -94.60088 19152 ft 432 kts 174°
2026-05-07 14:52 38.70333 -94.59327 19713 ft 435 kts 174°
2026-05-07 14:52 38.67308 -94.58563 20269 ft 438 kts 175°
2026-05-07 14:52 38.64306 -94.57823 20894 ft 441 kts 175°
2026-05-07 14:52 38.61287 -94.57085 21478 ft 443 kts 176°
2026-05-07 14:53 38.58255 -94.56345 22037 ft 447 kts 176°
2026-05-07 14:53 38.55193 -94.55598 22600 ft 449 kts 176°
2026-05-07 14:53 38.52143 -94.54854 23170 ft 453 kts 176°
2026-05-07 14:53 38.49074 -94.54105 23731 ft 456 kts 176°
2026-05-07 14:54 38.45950 -94.53342 24212 ft 459 kts 176°
2026-05-07 14:54 38.42799 -94.52572 24727 ft 462 kts 176°
2026-05-07 14:54 38.39625 -94.51797 25227 ft 466 kts 176°
2026-05-07 14:54 38.36431 -94.51018 25757 ft 469 kts 176°
2026-05-07 14:55 38.33213 -94.50234 26262 ft 472 kts 176°
2026-05-07 14:55 38.29976 -94.49375 26741 ft 479 kts 173°
2026-05-07 14:55 38.26784 -94.47965 27234 ft 493 kts 161°
2026-05-07 14:55 38.23814 -94.45680 27711 ft 507 kts 147°
2026-05-07 14:56 38.21158 -94.42653 28164 ft 518 kts 139°
2026-05-07 14:56 38.18714 -94.39285 28624 ft 523 kts 135°
2026-05-07 14:56 38.16304 -94.35797 29085 ft 527 kts 135°
2026-05-07 14:56 38.13855 -94.32317 29544 ft 530 kts 136°
2026-05-07 14:57 38.11341 -94.28877 29982 ft 533 kts 137°
2026-05-07 14:57 38.08769 -94.25473 30359 ft 535 kts 139°
2026-05-07 14:57 38.06162 -94.22099 30708 ft 537 kts 139°
2026-05-07 14:57 38.03565 -94.18776 31117 ft 538 kts 140°
2026-05-07 14:58 38.00928 -94.15413 31533 ft 538 kts 140°
2026-05-07 14:58 37.98297 -94.12057 31992 ft 537 kts 140°
2026-05-07 14:58 37.96517 -94.09785 32313 ft 536 kts 140°
2026-05-07 14:58 37.93057 -94.05367 32921 ft 534 kts 140°
2026-05-07 14:59 37.90446 -94.02032 33351 ft 533 kts 141°
2026-05-07 14:59 37.88683 -93.99783 33659 ft 532 kts 141°
2026-05-07 14:59 37.86072 -93.96455 33962 ft 533 kts 141°
2026-05-07 14:59 37.83473 -93.93147 34316 ft 532 kts 142°
2026-05-07 15:00 37.80861 -93.89825 34605 ft 532 kts 142°
2026-05-07 15:00 37.78251 -93.86507 34898 ft 532 kts 142°
2026-05-07 15:00 37.75640 -93.83193 35179 ft 532 kts 142°
2026-05-07 15:00 37.73041 -93.79899 35467 ft 532 kts 142°
2026-05-07 15:01 37.70418 -93.76578 35704 ft 533 kts 142°
2026-05-07 15:01 37.67803 -93.73269 35970 ft 533 kts 142°
2026-05-07 15:01 37.65212 -93.70000 36164 ft 533 kts 143°
2026-05-07 15:01 37.62581 -93.66699 36410 ft 533 kts 143°
2026-05-07 15:02 37.59955 -93.63407 36674 ft 533 kts 143°
2026-05-07 15:02 37.57328 -93.60112 36935 ft 532 kts 143°
2026-05-07 15:02 37.54667 -93.56771 37090 ft 533 kts 143°
2026-05-07 15:02 37.52085 -93.53530 37121 ft 535 kts 143°
2026-05-07 15:03 37.46775 -93.46866 37133 ft 535 kts 143°
2026-05-07 15:03 37.41499 -93.40254 37099 ft 535 kts 144°
2026-05-07 15:04 37.36195 -93.33626 37127 ft 538 kts 144°
2026-05-07 15:04 37.31195 -93.26675 37128 ft 549 kts 135°
2026-05-07 15:05 37.26767 -93.18796 37126 ft 554 kts 131°
2026-05-07 15:05 37.22499 -93.10810 37005 ft 546 kts 131°
2026-05-07 15:06 37.20364 -93.06879 35930 ft 547 kts 132°
2026-05-07 15:06 37.18195 -93.02955 34749 ft 550 kts 133°
2026-05-07 15:06 37.16006 -92.99037 34144 ft 544 kts 133°
2026-05-07 15:06 37.13806 -92.95120 33741 ft 552 kts 133°
2026-05-07 15:07 37.11589 -92.91181 33352 ft 553 kts 132°
2026-05-07 15:07 37.09378 -92.87248 33178 ft 552 kts 132°
2026-05-07 15:07 37.04950 -92.79370 33139 ft 554 kts 132°
2026-05-07 15:08 37.00510 -92.71481 33133 ft 554 kts 132°
2026-05-07 15:08 36.96080 -92.63629 33099 ft 555 kts 133°
2026-05-07 15:09 36.91599 -92.55717 33136 ft 561 kts 134°
2026-05-07 15:09 36.87096 -92.47774 33139 ft 562 kts 134°
2026-05-07 15:10 36.82581 -92.39865 33142 ft 561 kts 134°
2026-05-07 15:10 36.78059 -92.31973 33146 ft 561 kts 134°
2026-05-07 15:11 36.73522 -92.24049 33144 ft 565 kts 135°
2026-05-07 15:11 36.68975 -92.16109 33148 ft 569 kts 136°
2026-05-07 15:12 36.64373 -92.08083 33152 ft 571 kts 136°
2026-05-07 15:12 36.59766 -92.00066 33152 ft 570 kts 136°
2026-05-07 15:13 36.55146 -91.92050 33152 ft 570 kts 136°
2026-05-07 15:13 36.50504 -91.84025 33156 ft 573 kts 136°
2026-05-07 15:14 36.45849 -91.75989 33143 ft 573 kts 137°
2026-05-07 15:14 36.41186 -91.67951 33156 ft 573 kts 137°
2026-05-07 15:15 36.36515 -91.59930 33156 ft 573 kts 137°
2026-05-07 15:15 36.31826 -91.51946 33161 ft 573 kts 137°
2026-05-07 15:16 36.27131 -91.43950 33155 ft 573 kts 137°
2026-05-07 15:16 36.22450 -91.35962 33128 ft 571 kts 138°
2026-05-07 15:17 36.20088 -91.32092 33139 ft 553 kts 143°
2026-05-07 15:17 36.17450 -91.28775 33152 ft 529 kts 155°
2026-05-07 15:17 36.14533 -91.26200 33154 ft 502 kts 166°
2026-05-07 15:17 36.11497 -91.24278 32328 ft 484 kts 172°
2026-05-07 15:18 36.08396 -91.22701 31088 ft 482 kts 174°
2026-05-07 15:18 36.05262 -91.21181 29782 ft 487 kts 173°
2026-05-07 15:18 36.02102 -91.19560 28495 ft 493 kts 170°
2026-05-07 15:18 35.98984 -91.17829 27527 ft 490 kts 168°
2026-05-07 15:19 35.95917 -91.16029 26598 ft 486 kts 166°
2026-05-07 15:19 35.92893 -91.14204 25714 ft 481 kts 165°
2026-05-07 15:19 35.89908 -91.12382 24866 ft 476 kts 164°
2026-05-07 15:19 35.86976 -91.10588 24433 ft 463 kts 164°
2026-05-07 15:20 35.84130 -91.08845 24333 ft 448 kts 164°
2026-05-07 15:20 35.81360 -91.07158 23716 ft 441 kts 164°
2026-05-07 15:20 35.78631 -91.05519 23269 ft 434 kts 164°
2026-05-07 15:20 35.75902 -91.03895 23002 ft 435 kts 164°
2026-05-07 15:21 35.73211 -91.02286 22787 ft 423 kts 166°
2026-05-07 15:21 35.70594 -91.00712 22646 ft 417 kts 166°
2026-05-07 15:21 35.67994 -90.99160 22516 ft 415 kts 166°
2026-05-07 15:21 35.65438 -90.97637 22386 ft 414 kts 166°
2026-05-07 15:22 35.62851 -90.96097 22262 ft 413 kts 166°
2026-05-07 15:22 35.60265 -90.94556 22133 ft 412 kts 166°
2026-05-07 15:22 35.57683 -90.93019 21647 ft 414 kts 166°
2026-05-07 15:22 35.55109 -90.91482 20993 ft 409 kts 165°
2026-05-07 15:23 35.52577 -90.89932 20404 ft 407 kts 161°
2026-05-07 15:23 35.50229 -90.87904 19751 ft 423 kts 144°
2026-05-07 15:23 35.48386 -90.85025 19044 ft 436 kts 127°
2026-05-07 15:23 35.47015 -90.81694 18331 ft 439 kts 118°
2026-05-07 15:24 35.45853 -90.78260 17555 ft 436 kts 116°
2026-05-07 15:24 35.44739 -90.74845 16813 ft 425 kts 116°
2026-05-07 15:24 35.43621 -90.71530 16312 ft 418 kts 117°
2026-05-07 15:24 35.42472 -90.68282 16089 ft 414 kts 118°
2026-05-07 15:25 35.41294 -90.65078 15997 ft 412 kts 119°
2026-05-07 15:25 35.40094 -90.61886 15932 ft 412 kts 119°
2026-05-07 15:25 35.38891 -90.58718 15855 ft 411 kts 120°
2026-05-07 15:25 35.37681 -90.55547 15799 ft 411 kts 120°
2026-05-07 15:26 35.36465 -90.52368 15342 ft 413 kts 120°
2026-05-07 15:26 35.35242 -90.49213 14689 ft 409 kts 122°
2026-05-07 15:26 35.33764 -90.46278 14057 ft 402 kts 131°
2026-05-07 15:26 35.32081 -90.43571 13369 ft 397 kts 134°
2026-05-07 15:27 35.30334 -90.40978 12721 ft 393 kts 135°
2026-05-07 15:27 35.28590 -90.38438 12269 ft 384 kts 135°
2026-05-07 15:27 35.26916 -90.35984 12133 ft 367 kts 135°
2026-05-07 15:27 35.25321 -90.33627 12005 ft 352 kts 135°
2026-05-07 15:28 35.23797 -90.31366 11881 ft 341 kts 135°
2026-05-07 15:28 35.22294 -90.29137 11817 ft 339 kts 135°
2026-05-07 15:28 35.20793 -90.26911 11745 ft 339 kts 135°
2026-05-07 15:28 35.19296 -90.24688 11697 ft 339 kts 135°
2026-05-07 15:29 35.17799 -90.22463 11500 ft 342 kts 135°
2026-05-07 15:29 35.16279 -90.20205 10894 ft 346 kts 134°
2026-05-07 15:29 35.14766 -90.17951 10408 ft 337 kts 134°
2026-05-07 15:29 35.13324 -90.15789 10210 ft 320 kts 134°
2026-05-07 15:30 35.11942 -90.13718 10062 ft 308 kts 134°
2026-05-07 15:30 35.10497 -90.11892 9880 ft 290 kts 150°
2026-05-07 15:30 35.08738 -90.10934 9297 ft 277 kts 178°
2026-05-07 15:30 35.06836 -90.10770 8768 ft 274 kts 187°
2026-05-07 15:31 35.04941 -90.10818 8260 ft 268 kts 188°
2026-05-07 15:31 35.03110 -90.10882 7964 ft 260 kts 187°
2026-05-07 15:31 35.01297 -90.10884 7887 ft 262 kts 185°
2026-05-07 15:31 34.99499 -90.10853 7815 ft 256 kts 185°
2026-05-07 15:32 34.97767 -90.10808 7735 ft 252 kts 185°
2026-05-07 15:32 34.96010 -90.10761 7626 ft 254 kts 184°
2026-05-07 15:32 34.94262 -90.10712 7263 ft 246 kts 184°
2026-05-07 15:32 34.92603 -90.10658 6846 ft 234 kts 183°
2026-05-07 15:33 34.91007 -90.10605 6428 ft 225 kts 182°
2026-05-07 15:33 34.89473 -90.10556 6014 ft 216 kts 181°
2026-05-07 15:33 34.87997 -90.10510 5640 ft 212 kts 180°
2026-05-07 15:33 34.86542 -90.10465 5279 ft 210 kts 179°
2026-05-07 15:34 34.85080 -90.10418 4991 ft 210 kts 179°
2026-05-07 15:34 34.83626 -90.10370 4577 ft 207 kts 178°
2026-05-07 15:34 34.82184 -90.10325 4249 ft 209 kts 177°
2026-05-07 15:34 34.80738 -90.10278 4017 ft 206 kts 177°
2026-05-07 15:35 34.79327 -90.10011 3959 ft 205 kts 157°
2026-05-07 15:35 34.78164 -90.09078 3883 ft 199 kts 127°
2026-05-07 15:35 34.77586 -90.07600 3842 ft 191 kts 94°
2026-05-07 15:35 34.77715 -90.06041 3759 ft 183 kts 63°
2026-05-07 15:36 34.78396 -90.04759 3724 ft 182 kts 49°
2026-05-07 15:36 34.79195 -90.03569 3673 ft 181 kts 48°
2026-05-07 15:36 34.79997 -90.02400 3615 ft 180 kts 47°
2026-05-07 15:36 34.80807 -90.01235 3557 ft 179 kts 47°
2026-05-07 15:37 34.81615 -90.00079 3458 ft 179 kts 47°
2026-05-07 15:37 34.82425 -89.98932 3435 ft 179 kts 47°
2026-05-07 15:37 34.83343 -89.97929 3348 ft 176 kts 30°
2026-05-07 15:37 34.84487 -89.97459 3245 ft 175 kts
2026-05-07 15:38 34.85716 -89.97365 3189 ft 177 kts
2026-05-07 15:38 34.86944 -89.97285 3001 ft 175 kts
2026-05-07 15:38 34.88162 -89.97279 2609 ft 180 kts 357°
2026-05-07 15:38 34.89371 -89.97342 2469 ft 177 kts
2026-05-07 15:39 34.90589 -89.97323 2523 ft 175 kts
2026-05-07 15:39 34.91767 -89.97334 2458 ft 160 kts
2026-05-07 15:39 34.92848 -89.97362 2206 ft 155 kts
2026-05-07 15:39 34.93930 -89.97385 2056 ft 155 kts
2026-05-07 15:40 34.95007 -89.97406 1752 ft 156 kts
2026-05-07 15:40 34.96078 -89.97448 1611 ft 154 kts
2026-05-07 15:40 34.97136 -89.97483 1416 ft 151 kts
2026-05-07 15:40 34.98190 -89.97482 1225 ft 153 kts
2026-05-07 15:41 34.99253 -89.97501 1042 ft 153 kts 360°
2026-05-07 15:41 35.00316 -89.97514 813 ft 153 kts 360°
2026-05-07 15:41 35.01347 -89.97539 589 ft 146 kts
2026-05-07 15:41 35.02336 -89.97552 378 ft 143 kts
2026-05-07 15:42 35.03237 -89.97569 328 ft 112 kts 358°
2026-05-07 15:42 35.03894 -89.97583 329 ft 77 kts 359°
2026-05-07 15:42 35.04298 -89.97594 331 ft 39 kts 359°
2026-05-07 15:42 35.04478 -89.97581 330 ft 23 kts 13°
2026-05-07 15:43 35.04597 -89.97507 332 ft 14 kts 34°
2026-05-07 15:43 35.04695 -89.97469 333 ft 17 kts
2026-05-07 15:43 35.04821 -89.97472 330 ft 18 kts 359°
2026-05-07 15:43 35.04942 -89.97475 332 ft 17 kts 359°
2026-05-07 15:44 35.05060 -89.97476 332 ft 18 kts 360°
2026-05-07 15:44 35.05197 -89.97478 332 ft 20 kts 359°
2026-05-07 15:44 35.05330 -89.97482 332 ft 18 kts 359°
2026-05-07 15:44 35.05451 -89.97484 332 ft 16 kts
2026-05-07 15:45 35.05534 -89.97421 333 ft 15 kts 53°
2026-05-07 15:45 35.05592 -89.97318 334 ft 14 kts 56°
2026-05-07 15:45 35.05648 -89.97223 334 ft 13 kts 43°
2026-05-07 15:45 35.05725 -89.97196 335 ft 11 kts
2026-05-07 15:46 35.05859 -89.97189 334 ft 5 kts
2026-05-07 15:46 35.05887 -89.97191 334 ft 7 kts 354°
2026-05-07 15:46 35.05928 -89.97195 335 ft 5 kts 359°
2026-05-07 15:47 35.05961 -89.97194 335 ft 4 kts
2026-05-07 15:47 35.05994 -89.97193 335 ft 3 kts
2026-05-07 15:47 35.06002 -89.97193 332 ft 1 kts
2026-05-07 15:47 35.06008 -89.97193 335 ft 1 kts
2026-05-07 15:48 35.06013 -89.97193 335 ft 1 kts
2026-05-07 15:48 35.06017 -89.97193 335 ft 0 kts
2026-05-07 15:48 35.06022 -89.97193 334 ft 1 kts
2026-05-07 15:48 35.06023 -89.97193 334 ft 0 kts